Location: Recife
(8.0585°S, 34.8848°W)
Time: 11:10:21
(UTC-03:00)

Transit 2A - Pass Details

Date: 16 April 2026
Orbit: 594 x 950 km, 66.7° (Epoch: 14 May)

Event Time Altitude Azimuth Distance (km) Brightness Sun altitude
Rises 08:34:04 0° 344° (NNW) 2,923 9.1 45.0°
Reaches altitude 10° 08:36:23 10° 346° (NNW) 1,982 8.4 45.5°
Maximum altitude 08:40:47 71° 70° (ENE) 638 7.1 46.5°
Drops below altitude 10° 08:45:03 10° 154° (SSE) 1,929 8.2 47.5°
Sets 08:47:17 0° 156° (SSE) 2,837 9.0 48.0°
